STARLINK-31156, 58743

Orbit data source: Space-Track

STARLINK-31156, 58743 is a payload satellite owned by SpaceX/Seattle (US) in LEO that was launched on Sun, 07 Jan 2024 UTC via an FALCON 9 launch vehicle from the Air Force Eastern Test Range (AFETR). Payload-class satellites include a variety of spacecraft equipped with specific instruments for various scientific and technological missions. These include communications satellites like Starlink; space stations such as the ISS; scientific satellites like the Hubble; Earth observation satellites from companies like Planet Labs, Umbra, and HawkEye 360; GPS; miniature CubeSats for education and research; and military/defense satellites.

Loading next visibility...
Identifier
58743, 2024-005R
Orbit
LEO
Country
Flag of USUS
Related business
Manufacturer
SpaceX/Seattle
Mission
Operational Commercial Communications
Bus & Motor
STARLINK V2M, Unknown motor
Mass
730 kg wet, ~700 kg dry
Launch date (UTC)
2024-01-07 (2 years ago)
Launch vehicle
FALCON 9
Launch site
Air Force Eastern Test Range (AFETR)
Object type
Payload
Rocket body
Debris
Shape & HBR
Box + 2 Pan, 17.7 m
Radar Cross Section
33.884 m², Large (>1 m²)

Expand to show TLE details & history
Last TLE update: 3 days ago

TLE from 3 days ago
0 STARLINK-31156
1 58743U 24005R   26170.55296170 -.00000483  00000-0 -79967-5 0  9999
2 58743  43.0028   4.3845 0002168 286.6091  73.4522 15.27575388136070
Epoch: 2026-06-19T13:16Z
TLE epoch observation values (Epoch: 2026-06-19T13:16:15.890Z)
Latitude
-0.00007°
Longitude
-102.46208°
Altitude
482.415 km
Speed
7.626 km/s
True Right ascension
00h 17m 32s
True Declination
0° 00' 00"
Sunlit
Object was in daylight at epoch
Visualization orbit readout
Latitude
Unknown
Longitude
Unknown
Altitude
Unknown
Speed
Unknown
Apparent Right ascension
Unknown
Apparent Declination
Unknown
Sunlit
N/A
Visualization observer readout
Local Sidereal Time
21:25:28
Azimuth
Unknown
Elevation
Unknown
Doppler factor
Unknown
Orbital elements
Apogee altitude
486.496 km
Perigee altitude
483.52 km
Semi-major axis
6,863.145 km
Eccentricity
0.00022
Inclination
43.0028°
RAAN
4.3845°
Arg. of periapsis
286.6091°
True anomaly
73.47602°
Mean anomaly
73.4522°
Eccentric anomaly
73.46411°
Mean motion
3.81732 °/min
Orbital period
94.31 mins
BSTAR
-0.0000079967
Loading maneuver chart data...
Computing Atmospheric mass density...
Loading historical data...
Loading historical data...
Loading historical data...
Loading historical data...
Loading historical data...
Loading historical data...
Loading historical data...

Documentation

Showing up to 5 results
|